| time (UTC) | temp C | wind direction | speed KPH | gust KPH | rain 1hr cm | rain 24hr cm | rain mn cm | humidity % | barometer mb |
| 20260509211832 | 16 | 342 | 0.0 | 1.6 | 0.00 | 0.00 | 0.00 | 41 | 1022.5 |
| 20260509210337 | 16 | 278 | 0.0 | 1.6 | 0.00 | 0.00 | 0.00 | 41 | 1022.3 |
| 20260509204844 | 16 | 313 | 0.0 | 1.6 | 0.00 | 0.00 | 0.00 | 41 | 1022.2 |
| 20260509203324 | 16 | 292 | 0.0 | 0.0 | 0.00 | 0.00 | 0.00 | 41 | 1022.1 |
| 20260509201829 | 16 | 333 | 0.0 | 0.0 | 0.00 | 0.00 | 0.00 | 41 | 1021.9 |
| 20260509200350 | 16 | 340 | 0.0 | 0.0 | 0.00 | 0.00 | 0.00 | 41 | 1021.7 |
| 20260509194835 | 16 | 280 | 0.0 | 1.6 | 0.00 | 0.00 | 0.00 | 40 | 1021.5 |
| 20260509193340 | 16 | 351 | 0.0 | 1.6 | 0.00 | 0.00 | 0.00 | 40 | 1021.1 |
| 20260509191845 | 16 | 280 | 0.0 | 0.0 | 0.00 | 0.00 | 0.00 | 40 | 1020.9 |
| 20260509190332 | 16 | 331 | 0.0 | 0.0 | 0.00 | 0.00 | 0.00 | 39 | 1020.7 |
| 20260509184902 | 16 | 303 | 0.0 | 0.0 | 0.00 | 0.00 | 0.00 | 40 | 1020.6 |
| 20260509183324 | 16 | 311 | 0.0 | 0.0 | 0.00 | 0.00 | 0.00 | 40 | 1020.5 |
| 20260509181831 | 17 | 317 | 0.0 | 0.0 | 0.00 | 0.00 | 0.00 | 39 | 1020.3 |
| 20260509180339 | 17 | 5 | 0.0 | 0.0 | 0.00 | 0.00 | 0.00 | 39 | 1020.3 |
| 20260509174824 | 17 | 328 | 0.0 | 0.0 | 0.00 | 0.00 | 0.00 | 39 | 1020.1 |
| 20260509173329 | 17 | 304 | 0.0 | 0.0 | 0.00 | 0.00 | 0.00 | 40 | 1019.9 |
| 20260509171841 | 17 | 316 | 0.0 | 0.0 | 0.00 | 0.00 | 0.00 | 40 | 1019.8 |
| 20260509170324 | 17 | 317 | 0.0 | 0.0 | 0.00 | 0.00 | 0.00 | 40 | 1019.8 |
| 20260509164855 | 17 | 310 | 0.0 | 0.0 | 0.00 | 0.00 | 0.00 | 40 | 1019.8 |
| 20260509163340 | 17 | 63 | 0.0 | 1.6 | 0.00 | 0.00 | 0.00 | 40 | 1019.8 |
| 20260509161824 | 17 | 277 | 0.0 | 1.6 | 0.00 | 0.00 | 0.00 | 39 | 1019.7 |
| 20260509160353 | 17 | 306 | 0.0 | 0.0 | 0.00 | 0.00 | 0.00 | 39 | 1019.5 |
| 20260509154901 | 17 | 267 | 0.0 | 0.0 | 0.00 | 0.00 | 0.00 | 39 | 1019.5 |
| 20260509153323 | 17 | 282 | 0.0 | 0.0 | 0.00 | 0.00 | 0.00 | 37 | 1019.5 |
| 20260509151828 | 17 | 302 | 0.0 | 3.2 | 0.00 | 0.00 | 0.00 | 37 | 1019.5 |
| 20260509144835 | 18 | 304 | 0.0 | 1.6 | 0.00 | 0.00 | 0.00 | 36 | 1019.5 |
| 20260509143338 | 18 | 296 | 0.0 | 3.2 | 0.00 | 0.00 | 0.00 | 35 | 1019.4 |
| 20260509141828 | 18 | 306 | 0.0 | 1.6 | 0.00 | 0.00 | 0.00 | 34 | 1019.1 |
| 20260509140334 | 18 | 285 | 0.0 | 1.6 | 0.00 | 0.00 | 0.00 | 32 | 1019.0 |
| 20260509134842 | 19 | 286 | 0.0 | 4.8 | 0.00 | 0.00 | 0.00 | 31 | 1018.8 |
| 20260509133326 | 19 | 283 | 0.0 | 0.0 | 0.00 | 0.00 | 0.00 | 30 | 1018.8 |
| 20260509131830 | 19 | 306 | 0.0 | 0.0 | 0.00 | 0.00 | 0.00 | 29 | 1018.7 |
| 20260509130341 | 20 | 277 | 0.0 | 3.2 | 0.00 | 0.00 | 0.00 | 29 | 1018.5 |
| 20260509124825 | 20 | 307 | 0.0 | 0.0 | 0.00 | 0.00 | 0.00 | 28 | 1018.3 |
| 20260509123333 | 20 | 284 | 0.0 | 0.0 | 0.00 | 0.00 | 0.00 | 27 | 1018.1 |
| 20260509121842 | 20 | 284 | 0.0 | 0.0 | 0.00 | 0.00 | 0.00 | 27 | 1018.2 |
| 20260509120329 | 20 | 284 | 0.0 | 0.0 | 0.00 | 0.00 | 0.00 | 27 | 1018.0 |
| 20260509114835 | 20 | 288 | 0.0 | 0.0 | 0.00 | 0.00 | 0.00 | 26 | 1018.0 |
| 20260509113339 | 20 | 36 | 0.0 | 1.6 | 0.00 | 0.00 | 0.00 | 26 | 1017.8 |
| 20260509111848 | 20 | 335 | 0.0 | 0.0 | 0.00 | 0.00 | 0.00 | 26 | 1017.6 |
| 20260509110331 | 20 | 339 | 0.0 | 0.0 | 0.00 | 0.00 | 0.00 | 26 | 1017.4 |
| 20260509104839 | 20 | 277 | 0.0 | 1.6 | 0.00 | 0.00 | 0.00 | 26 | 1017.3 |
| 20260509103345 | 21 | 292 | 0.0 | 1.6 | 0.00 | 0.00 | 0.00 | 26 | 1016.9 |
| 20260509101823 | 21 | 294 | 0.0 | 0.0 | 0.00 | 0.00 | 0.00 | 26 | 1016.5 |
| 20260509100352 | 21 | 324 | 0.0 | 9.7 | 0.00 | 0.00 | 0.00 | 26 | 1016.3 |
| 20260509094839 | 21 | 289 | 0.0 | 1.6 | 0.00 | 0.00 | 0.00 | 25 | 1016.2 |
| 20260509093325 | 21 | 178 | 0.0 | 0.0 | 0.00 | 0.00 | 0.00 | 26 | 1015.9 |
| 20260509091844 | 22 | 309 | 0.0 | 1.6 | 0.00 | 0.00 | 0.00 | 25 | 1015.5 |
| 20260509090329 | 22 | 271 | 0.0 | 3.2 | 0.00 | 0.00 | 0.00 | 25 | 1015.2 |
| 20260509084841 | 22 | 82 | 0.0 | 12.9 | 0.00 | 0.00 | 0.00 | 24 | 1015.1 |
| 20260509083345 | 23 | 290 | 0.0 | 1.6 | 0.00 | 0.00 | 0.00 | 24 | 1014.8 |
| 20260509081828 | 23 | 235 | 0.0 | 0.0 | 0.00 | 0.00 | 0.00 | 24 | 1014.7 |
| 20260509080336 | 23 | 69 | 0.0 | 1.6 | 0.00 | 0.00 | 0.00 | 25 | 1014.4 |
| 20260509074825 | 23 | 306 | 0.0 | 3.2 | 0.00 | 0.00 | 0.00 | 25 | 1014.1 |
| 20260509073349 | 23 | 329 | 0.0 | 24.1 | 0.00 | 0.00 | 0.00 | 25 | 1013.8 |
| 20260509071831 | 23 | 308 | 0.0 | 1.6 | 0.00 | 0.00 | 0.00 | 25 | 1013.5 |
| 20260509070337 | 23 | 313 | 0.0 | 3.2 | 0.00 | 0.00 | 0.00 | 26 | 1013.4 |
| 20260509064825 | 23 | 304 | 0.0 | 3.2 | 0.00 | 0.00 | 0.00 | 26 | 1013.0 |
| 20260509063331 | 23 | 325 | 0.0 | 1.6 | 0.00 | 0.00 | 0.00 | 26 | 1013.0 |
| 20260509061831 | 23 | 216 | 0.0 | 3.2 | 0.00 | 0.00 | 0.00 | 27 | 1013.0 |
| 20260509060339 | 23 | 309 | 0.0 | 19.3 | 0.00 | 0.00 | 0.00 | 27 | 1012.9 |
| 20260509054824 | 23 | 341 | 0.0 | 1.6 | 0.00 | 0.00 | 0.00 | 28 | 1012.8 |
| 20260509053331 | 23 | 298 | 0.0 | 6.4 | 0.00 | 0.00 | 0.00 | 28 | 1012.7 |
| 20260509051838 | 23 | 282 | 0.0 | 1.6 | 0.00 | 0.00 | 0.00 | 29 | 1012.8 |
| 20260509050343 | 23 | 55 | 0.0 | 16.1 | 0.00 | 0.00 | 0.00 | 30 | 1012.6 |
| 20260509044825 | 23 | 350 | 0.0 | 3.2 | 0.00 | 0.00 | 0.00 | 30 | 1012.9 |
| 20260509043330 | 22 | 261 | 0.0 | 8.0 | 0.00 | 0.00 | 0.00 | 31 | 1012.7 |
| 20260509041832 | 22 | 73 | 4.8 | 30.6 | 0.00 | 0.00 | 0.00 | 31 | 1012.8 |
| 20260509040339 | 22 | 22 | 1.6 | 24.1 | 0.00 | 0.00 | 0.00 | 31 | 1013.0 |
| 20260509034822 | 22 | 14 | 0.0 | 3.2 | 0.00 | 0.00 | 0.00 | 32 | 1013.0 |
| 20260509033328 | 22 | 332 | 1.6 | 22.5 | 0.00 | 0.00 | 0.00 | 33 | 1013.2 |
| 20260509031853 | 22 | 337 | 0.0 | 3.2 | 0.00 | 0.00 | 0.00 | 31 | 1013.1 |
| 20260509030337 | 22 | 350 | 1.6 | 20.9 | 0.00 | 0.00 | 0.00 | 32 | 1012.9 |
| 20260509024827 | 21 | 322 | 1.6 | 32.2 | 0.00 | 0.00 | 0.00 | 33 | 1013.0 |
| 20260509023336 | 22 | 280 | 1.6 | 30.6 | 0.00 | 0.00 | 0.00 | 34 | 1013.0 |
| 20260509021843 | 22 | 290 | 0.0 | 14.5 | 0.00 | 0.00 | 0.00 | 33 | 1012.8 |
| 20260509020330 | 21 | 235 | 0.0 | 45.1 | 0.00 | 0.00 | 0.00 | 34 | 1013.0 |
| 20260509014843 | 21 | 326 | 0.0 | 17.7 | 0.00 | 0.00 | 0.00 | 36 | 1012.8 |
| 20260509013333 | 21 | 262 | 0.0 | 22.5 | 0.00 | 0.00 | 0.00 | 36 | 1013.0 |
| 20260509011837 | 21 | 340 | 1.6 | 30.6 | 0.00 | 0.00 | 0.00 | 37 | 1013.0 |
| 20260509010344 | 21 | 265 | 0.0 | 25.7 | 0.00 | 0.00 | 0.00 | 36 | 1012.5 |
| 20260509004826 | 21 | 227 | 1.6 | 27.4 | 0.00 | 0.00 | 0.00 | 35 | 1012.2 |
| 20260509003334 | 21 | 266 | 0.0 | 9.7 | 0.00 | 0.00 | 0.00 | 33 | 1012.0 |
| 20260509001842 | 21 | 302 | 0.0 | 1.6 | 0.00 | 0.00 | 0.00 | 32 | 1011.6 |
| 20260509000325 | 21 | 292 | 0.0 | 1.6 | 0.00 | 0.00 | 0.00 | 31 | 1011.8 |
| 20260508234834 | 21 | 279 | 0.0 | 14.5 | 0.00 | 0.00 | 0.00 | 30 | 1011.7 |
| 20260508233342 | 21 | 317 | 0.0 | 0.0 | 0.00 | 0.00 | 0.00 | 30 | 1011.6 |
| 20260508231828 | 21 | 278 | 0.0 | 1.6 | 0.00 | 0.00 | 0.00 | 29 | 1011.2 |
| 20260508230332 | 20 | 333 | 0.0 | 0.0 | 0.00 | 0.00 | 0.00 | 29 | 1010.9 |
| 20260508224839 | 20 | 344 | 0.0 | 1.6 | 0.00 | 0.00 | 0.00 | 29 | 1010.8 |
| 20260508223344 | 20 | 270 | 0.0 | 1.6 | 0.00 | 0.00 | 0.00 | 30 | 1010.7 |
| 20260508221824 | 19 | 273 | 0.0 | 0.0 | 0.00 | 0.00 | 0.00 | 31 | 1010.4 |
| 20260508220328 | 18 | 277 | 0.0 | 0.0 | 0.00 | 0.00 | 0.00 | 32 | 1010.1 |
| 20260508214836 | 18 | 282 | 0.0 | 0.0 | 0.00 | 0.00 | 0.00 | 32 | 1009.9 |
| 20260508213341 | 18 | 280 | 0.0 | 0.0 | 0.00 | 0.00 | 0.00 | 32 | 1009.6 |